www.pogodaiklimat.ru

Погода и климат >> Архив погоды >> Алжир >> Тиндуф


ПОГОДА в Тиндуфе

  • Прогноз погоды в Тиндуфе
  • Монитор погоды в Тиндуфе

АРХИВ ПОГОДЫ в Тиндуфе

Время (UTC), дата Ветер
(напр.,м/с)
 
Видим.   Явления Облачность Т
(С)
Тd
(С)
f
(%)
Тe
(С)
Тes
(С)
Комфортность P
(гПа)
Po
(гПа)
Тmin
(С)
Tmax
(С)
R
(мм)
R24
(мм)
S
(см)
21 11.09 З 9 9000 м 3/0
[Ci sp]
+24.6 +8.5 36 +25 +25 комфорт 1007.7 958.2
00 12.09 СЗ 8 8000 м 3/0
[Ci sp]
+21.4 +10.9 51 +23 +23 комфорт 1007.5 957.5
03 12.09 СЗ 7 8000 м 3/0
[Ci sp]
+20.3 +10.9 55 +22 +22 комфорт 1005.6 955.5
06 12.09 СВ 6 8000 м 3/0
[Ci sp]
+22.5 +2.7 27 +22 +22 комфорт 1007.1 957.3 +19.7
09 12.09 В 11 3000 м пыльный позёмок ясно +26.6 +1.5 20 +25 +25 комфорт 1010.8 961.5
12 12.09 В 10 3000 м пыльный позёмок ясно +31.3 +2.3 16 +29 +30 жарко 1010.9 962.3
15 12.09 СВ 4 3000 м пыльный позёмок ясно +33.7 +2.1 14 +31 +38 жарко 1008.9 960.8
18 12.09 В 3 8000 м ясно +33.8 +1.3 13 +31 +31 жарко 1008.8 960.7 +34.8
21 12.09 СВ 3 8000 м ясно +29.1 +1.5 17 +27 +27 жарко 1009.6 960.7
00 13.09 С 3 10 км ясно +25.0 +1.7 22 +24 +24 комфорт 1010.1 960.5
03 13.09 СВ 2 10 км ясно +23.3 +1.9 24 +23 +23 комфорт 1009.5 959.7
06 13.09 СВ 3 10 км ясно +22.1 +0.9 25 +22 +22 комфорт 1010.1 960.1 +21.2
09 13.09 В 6 10 км ясно +25.8 +1.9 21 +24 +27 комфорт 1012.6 963.0
12 13.09 ЮВ 2 10 км ясно +32.9 +2.5 15 +30 +48 жарко 1012.4 964.0
15 13.09 В 3 10 км ясно +36.1 +2.1 12 +33 +42 жарко 1009.9 962.1
18 13.09 ЮЗ 2 10 км ясно +36.3 -0.9 9 +32 +33 жарко 1010.3 962.5 +37.7
21 13.09 СЗ 3 10 км ясно +29.4 -1.7 13 +26 +26 жарко 1012.1 963.1
00 14.09 СВ 3 10 км ясно +28.2 -2.2 14 +25 +25 комфорт 1012.0 962.9
03 14.09 З 3 10 км ясно +23.6 -2.2 18 +22 +22 комфорт 1011.6 961.7
06 14.09 СЗ 3 10 км ясно +21.7 -0.7 22 +21 +21 комфорт 1012.5 962.3 +21.5
09 14.09 ЮЗ 2 10 км ясно +29.3 +5.6 22 +28 +34 жарко 1013.8 964.7
12 14.09 ЮЗ 5 10 км ясно +36.6 +3.9 13 +34 +42 очень
жарко
1013.3 965.4
15 14.09 ЮЗ 7 10 км ясно +39.6 +3.0 10 +36 +39 очень
жарко
1011.2 963.8
18 14.09 З 5 10 км ясно +38.8 +3.8 12 +36 +36 очень
жарко
1011.8 964.3 +40.0
21 14.09 З 4 10 км ясно +32.9 +3.2 15 +30 +30 жарко 1013.3 964.8
00 15.09 З 3 10 км ясно +29.6 -0.5 14 +27 +27 жарко 1013.1 964.1
03 15.09 СЗ 6 10 км ясно +27.0 +8.4 31 +27 +27 жарко 1011.8 962.5
06 15.09 СЗ 4 10 км 3/0
[Ac cast]
+25.2 +9.0 36 +26 +26 жарко 1013.2 963.5 +25.2
09 15.09 З 1 10 км 6/3 90 м
[Cu med, cong Ac cast]
+30.4 +4.5 19 +28 +32 жарко 1015.1 966.1
12 15.09 З 7 10 км 8/4 1200 м
[Cu med, cong Ac cast]
+38.9 +1.1 9 +35 +37 очень
жарко
1013.4 965.8
15 15.09 СЗ 8 10 км 9/5 900 м
[Cb cap Ac cast]
+39.9 +1.9 10 +36 +37 очень
жарко
1011.8 964.5
18 15.09 З 9 10 км 8/5 900 м
[Cb cap Ac cast]
+37.5 +5.1 14 +35 +35 очень
жарко
1012.3 964.6 +40.7
21 15.09 З 3 10 км 6/4 1200 м
[Cu med, cong Ac cast]
+33.9 +6.4 18 +32 +32 жарко 1013.1 964.8
00 16.09 СЗ 5 10 км 5/3 1380 м
[Cu med, cong Ac cast]
+31.7 +7.3 22 +30 +30 жарко 1012.4 963.8
03 16.09 СЗ 6 10 км 5/3 1380 м
[Cu med, cong Ac cast]
+29.8 +6.5 23 +29 +29 жарко 1010.9 962.1
06 16.09 СЗ 4 10 км 5/3 1380 м
[Cu med, cong Ac cast]
+26.5 +4.3 24 +25 +25 комфорт 1011.6 962.2 +26.2
09 16.09 С 2 10 км 6/3 1200 м
[Cu med, cong Ac cast]
+33.1 -0.0 12 +30 +33 жарко 1013.0 964.6
12 16.09 С 4 10 км 6/3 1200 м
[Cu med, cong Ac cast Ci sp]
+40.5 +35 +42 очень
жарко
1011.7 964.4
15 16.09 З 4 10 км 8/6 1200 м
[Cu med, cong Ac cast]
+41.3 +2.3 9 +38 +40 очень
жарко
1009.6 962.6
18 16.09 СЗ 11 6000 м пыльный позёмок 8/4 1380 м
[Cu med, cong Ac cast]
+38.8 +0.9 9 +35 +35 очень
жарко
1010.1 962.7 +42.4
21 16.09 СЗ 8 10 км 8/4 1380 м
[Cu med, cong Ac cast]
+34.0 -1.2 11 +30 +30 жарко 1012.0 963.8
00 17.09 СЗ 6 10 км 8/4 1380 м
[Cu med, cong Ac cast]
+32.2 +1.9 15 +29 +29 жарко 1011.3 962.8
03 17.09 СЗ 5 10 км 8/4 1380 м
[Cu med, cong Ac cast]
+29.3 +3.2 19 +27 +27 жарко 1009.8 960.9
06 17.09 СЗ 4 10 км 6/4 1380 м
[Cu med, cong Ac cast]
+27.1 +4.3 23 +26 +26 жарко 1010.4 961.2 +26.5
09 17.09 ЮЗ 3 10 км 8/4 1200 м
[Cu med, cong Ac cast Ci sp]
+32.6 +4.6 17 +30 +32 жарко 1012.4 963.9
12 17.09 С 1 10 км 8/4 1200 м
[Cu med, cong Ac cast Ci sp]
+38.4 +6.1 14 +36 +44 очень
жарко
1010.9 963.4
15 17.09 З 3 10 км 8/4 1200 м
[Cu med, cong Ac cast Ci sp]
+40.6 +7.0 13 +38 +42 очень
жарко
1009.4 962.3
18 17.09 З 5 10 км 5/1 1200 м
[Cu med, cong Ac cast Ci sp]
+39.2 +5.1 12 +36 +36 очень
жарко
1008.6 961.3 +41.5
21 17.09 СЗ 5 10 км 4/1 1200 м
[Cu med, cong Ac cast]
+34.3 +7.5 19 +32 +32 жарко 1009.8 961.7
00 18.09 СЗ 5 10 км 3/0
[Ac trans Ci sp]
+30.4 +6.4 22 +29 +29 жарко 1009.6 960.9
03 18.09 СЗ 6 10 км 3/0
[Ac cast]
+28.3 +5.9 24 +27 +27 жарко 1008.2 959.3
06 18.09 СЗ 6 10 км 6/3 1380 м
[Cu med, cong Ac cast]
+26.3 +7.0 29 +26 +26 жарко 1008.8 959.5 +26.2
09 18.09 ЮЗ 3 10 км 6/3 1380 м
[Cu med, cong Ac cast]
+31.5 +5.9 20 +30 +32 жарко 1011.7 963.1
12 18.09 штиль 0 10 км 5/1 1380 м
[Cu med, cong Ac cast Ci sp]
+38.3 +4.1 12 +35 +51 опасность
солнечного
удара
1010.9 963.4
15 18.09 З 4 10 км 5/1 1380 м
[Cu med, cong Ac cast Ci sp]
+39.9 +5.4 12 +37 +42 очень
жарко
1008.8 961.6
18 18.09 ЮЗ 4 10 км ясно +39.3 +5.1 12 +36 +37 очень
жарко
1008.6 961.3 +41.2

 

Местоположение метеостанции Тиндуф (Алжир): широта 27.70 долгота -8.17 высота над уровнем моря 439 м.

В архиве по умолчанию представлена погода в Тиндуфе за последнюю неделю. Архивные данные за месяц целиком и за предыдущие месяцы, начиная с января 2011 года, Вы можете получить, выбрав интересующий диапазон дат из раскрывающегося списка и нажав кнопку "Ввод!".


*Определитесь, кто Вы:
робот инопланетянин человек

Внимание! Время в таблицах - всемирное. Для получения местного времени необходимо прибавить поправку, которая равна 1 ч.

Смотрите также архив погоды в соседних городах и на ближайших метеорологических станциях:

Погода в Гулимине (Марокко) (235 км)
Погода в Тизните (Марокко) (268 км)
Погода в Сиди-Ифни (Марокко) (270 км)
Погода в Тан-Тане (Марокко) (304 км)
Погода в Агадире (Марокко) (315 км)
Погода в Таруданте (Марокко) (318 км)
Погода в Агадире (Марокко) (328 км)
Погода в Варзазате (Марокко) (380 км)
Погода в Марракеше (Марокко) (436 км)
Погода в Аэропорту Эс-Сувейра-Могадор (Марокко) (437 км)

Пояснения к столбцам:

Ветер - указаны скорость ветра в м/с - средняя за 10 мин, порывы в срок и между сроками (в фигурных скобках) и направление, откуда дует ветер: С - северный, СВ - северо-восточный, В - восточный, ЮВ - юго-восточный, Ю - южный, ЮЗ - юго-западный, З - западный, СЗ - северо-западный.
Видимость - горизонтальная дальность видимости в метрах или километрах. При видимости от 1 до 10 км при отсутствии осадков обычно наблюдается дымка, при ухудшении видимости до 1 км и менее - туман. В сухую погоду видимость может ухудшаться дымом, пылью или мглою.
Явления - указаны атмосферные явления, наблюдавшиеся в срок или в последний час перед сроком; фигурными скобками обозначены явления, наблюдавшиеся между сроками (за 1-3 часа до срока); квадратными скобками обозначены град или гололедные отложения с указанием их диаметра в мм.
Облачность - указаны через наклонную черту общая и нижняя облачность в баллах и высота нижней границы облаков в метрах; квадратными скобками обозначены формы облаков: Ci - перистые, Cs - перисто-слоистые, Cc - перисто-кучевые, Ac - высококучевые, As - высокослоистые, Sc - слоисто-кучевые, Ns - слоисто-дождевые, Cu - кучевые, Cb - кучево-дождевые. Подробнее классификацию облаков см. в Атласе облаков (PDF).
T - Температура воздуха - температура, измеренная на высоте 2 м над землей.
Td - Температура точки росы - температура, при понижении до которой содержащийся в воздухе водяной пар достигнет насыщения.
f - Относительная влажность воздуха - влажноcть воздуха, измеренная на высоте 2 м над землей.
Te - Эффективная температура - температура, которую ощущает одетый по сезону человек в тени. Характеристика душности погоды. При расчете учитывается влияние влажности воздуха и скорости ветра на теплоощущения человека.
Tes - Эффективная температура на солнце - температура, которую ощущает человек, с поправкой на солнечный нагрев. Характеристика знойности погоды. Зависит от высоты солнца над горизонтом, облачности и скорости ветра. Ночью, в пасмурную погоду, а также при ветре 12 м/с и более поправка равна нулю.
P - Атмосферное давление - приведенное к уровню моря атмосферное давление.
Po - Атмосферное давление - измеренное на уровне метеостанции атмосферное давление.
Tmin - Минимальная температура - минимум температуры воздуха на высоте 2 м над землей.
Tmax - Максимальная температура - максимум температуры воздуха на высоте 2 м над землей.
R - Количество осадков - Количество выпавших осадков за период времени, мм. При наведении курсора мыши на число - период времени, за который выпало указанное количество осадков.
R24 - Количество осадков - Количество выпавших осадков за 24 часа, мм.
S - Снежный покров - Высота снежного покрова, см. При наведении курсора мыши на число - состояние снежного покрова и степень покрытия местности в баллах.